Location: Chrome
(40.5765°N, 74.2163°W)
Time: 21:21:29
(UTC+00:00)

Okean-O - Pass Details

Date: 06 December 2019
Orbit: 639 x 641 km, 98.2° (Epoch: 16 January)

Event Time Altitude Azimuth Distance (km) Brightness Sun altitude
Rises 22:04:39 0° 141° (SE) 2,934 5.9 -6.7°
Reaches altitude 10° 22:07:01 10° 132° (SE) 2,029 5.0 -7.2°
Maximum altitude 22:10:56 32° 69° (ENE) 1,109 3.3 -7.8°
Drops below altitude 10° 22:14:52 10° 7° (N) 2,041 4.9 -8.5°
Sets 22:17:15 0° 358° (N) 2,955 5.8 -9.0°
